Location: Cactus School
(34.5700°N, 118.0931°W)
Time: 08:18:04
(UTC-07:00)

Vanguard 1 Rocket - Pass Details

Date: 23 April 2024
Orbit: 650 x 4220 km, 34.3° (Epoch: 22 May)

Event Time Altitude Azimuth Distance (km) Brightness Sun altitude
Rises 19:56:27 0° 267° (W) 3,013 11.6 -5.7°
Reaches altitude 10° 19:58:27 10° 268° (W) 2,198 10.7 -6.1°
Maximum altitude 20:03:18 89° 181° (S) 919 7.4 -7.1°
Drops below altitude 10° 20:11:21 10° 90° (E) 3,559 9.8 -8.6°
Enters shadow 20:12:27 - 90° (E) 3,981 10.1 -8.8°
